Location: Ch?enovice
(49.7164°N, 15.2160°E)
Time: 21:23:37
(UTC+00:00)

Cosmos 2360 Rocket - Pass Details

Date: 23 May 2024
Orbit: 832 x 846 km, 71.0° (Epoch: 20 June)

Event Time Altitude Azimuth Distance (km) Brightness Sun altitude
Rises 01:57:53 0° 327° (NNW) 3,416 5.6 -8.9°
Reaches altitude 10° 02:00:26 10° 321° (NW) 2,478 4.7 -8.6°
Maximum altitude 02:05:46 43° 251° (WSW) 1,169 2.6 -8.0°
Drops below altitude 10° 02:11:05 10° 181° (S) 2,461 4.2 -7.4°
Sets 02:13:37 0° 175° (S) 3,390 5.0 -7.2°
